Regional Weather Roundup
Issued by NWS Glasgow, MT

Home | Current Version | Previous Version | Text Only | Print | Product List | Glossary On
Versions: 1 2 3 4 5 6 7 8 9 10 11 12 13 14 15 16 17 18 19 20 21 22 23 24 25 26 27
000
ASUS45 KGGW 260315
RWRGGW
HOURLY REGIONAL WEATHER ROUNDUP FOR NORTHEAST MONTANA
NATIONAL WEATHER SERVICE GLASGOW MONTANA
900 PM MDT MON SEP 25 2017

NOTE: "FAIR" INDICATES FEW OR NO CLOUDS BELOW 12,000 FEET WITH NO
SIGNIFICANT WEATHER AND/OR OBSTRUCTIONS TO VISISBILITY.

NORTHEAST MONTANA


CITY           SKY/WX    TMP DP  RH WIND       PRES   REMARKS
GLASGOW        CLOUDY    49  40  71 SE10      30.08R
WOLF POINT     CLOUDY    48  40  73 CALM      30.11S
JORDAN           N/A     45  39  79 SE10      30.08R
WINNETT          N/A     46  39  76 E6          N/A
SIDNEY           N/A    N/A N/A N/A MISG        N/A
GLENDIVE       CLOUDY    44  41  89 NE3       30.11S
SCOBEY           N/A     47  36  65 CALM      30.08S

FORT PECK REPORTS


CITY           SKY/WX    TMP DP  RH WIND       PRES   REMARKS
FORT PECK        N/A     51  44  77 SE16        N/A

SOUTHEAST MONTANA


CITY           SKY/WX    TMP DP  RH WIND       PRES   REMARKS
BILLINGS       CLOUDY    53  37  54 W13       30.02S
MILES CITY     CLOUDY    43  41  93 E5        30.09S
BAKER          CLOUDY    46  39  76 E3        30.10S
LIVINGSTON     CLOUDY    48  36  63 NW13      30.07R

CENTRAL MONTANA


CITY           SKY/WX    TMP DP  RH WIND       PRES   REMARKS
HAVRE          PTCLDY    49  36  61 SE5       29.99S
LEWISTOWN      MOCLDY    45  32  60 S6        30.04S
GREAT FALLS    CLOUDY    54  35  48 SW8       30.03R
CUT BANK       MOCLDY    53  37  54 W13       30.01R
HELENA         CLOUDY    54  41  61 W6        30.06S
BUTTE          CLOUDY    44  42  93 SE6       30.13R
BOZEMAN        MOCLDY    50  40  68 W7        30.09R

WESTERN MONTANA


CITY           SKY/WX    TMP DP  RH WIND       PRES   REMARKS
MISSOULA       CLOUDY    51  47  86 W3        30.11R
KALISPELL      NOT AVBL

NORTH DAKOTA


CITY           SKY/WX    TMP DP  RH WIND       PRES   REMARKS
WILLISTON      LGT RAIN  48  46  93 CALM      30.13R
DICKINSON      CLOUDY    45  44  97 NE5       30.10S
MINOT          CLOUDY    50  44  80 CALM      30.13S
BISMARCK       CLOUDY    47  45  93 E3        30.13S

SOUTHERN SASKATCHEWAN


CITY           SKY/WX    TMP DP  RH WIND       PRES   REMARKS
REGINA         MOCLDY    48  36  61 SE12G18   30.10S
ESTEVAN        CLOUDY    48  43  81 SE5       30.13S
SWIFT CURRENT  CLEAR     48  30  49 S14       29.98S





USA.gov is the U.S. government's official web portal to all federal, state and local government web resources and services.